�������l�o���
Date,Time,MP-1(��Sv/h),MP-2(��Sv/h),MP-3(��Sv/h),MP-4(��Sv/h),MP-5(��Sv/h),MP-6(��Sv/h),MP-7(��Sv/h),MP-8(��Sv/h),����,����(m/s),���J
2019/02/22,00:00,0.780,1.131,0.788,1.470,1.056,0.441,0.787,0.746,�k��,6.8,��
2019/02/22,00:10,0.778,1.133,0.785,1.471,1.055,0.442,0.786,0.745,���k��,6.6,��
2019/02/22,00:20,0.779,1.132,0.789,1.472,1.054,0.442,0.786,0.745,���k��,6.1,��
2019/02/22,00:30,0.780,1.132,0.790,1.471,1.055,0.443,0.786,0.745,���k��,5.9,��
2019/02/22,00:40,0.777,1.132,0.788,1.470,1.055,0.441,0.788,0.745,���k��,5.3,��
2019/02/22,00:50,0.778,1.132,0.787,1.472,1.058,0.443,0.787,0.744,�k��,5.7,��
2019/02/22,01:00,0.782,1.133,0.789,1.473,1.056,0.441,0.788,0.745,�k��,5.3,��
2019/02/22,01:10,0.779,1.131,0.787,1.468,1.056,0.442,0.788,0.746,�k��,5.8,��
2019/02/22,01:20,0.779,1.132,0.788,1.470,1.057,0.442,0.786,0.746,�k��,6.3,��
2019/02/22,01:30,0.779,1.131,0.788,1.469,1.056,0.441,0.787,0.746,���k��,6.0,��
2019/02/22,01:40,0.778,1.132,0.787,1.469,1.056,0.441,0.787,0.744,���k��,6.1,��
2019/02/22,01:50,0.780,1.131,0.786,1.472,1.056,0.443,0.789,0.746,�k��,5.9,��
2019/02/22,02:00,0.777,1.130,0.788,1.471,1.055,0.441,0.787,0.745,�k��,6.8,��
2019/02/22,02:10,0.778,1.132,0.790,1.472,1.055,0.442,0.787,0.743,�k��,5.9,��
2019/02/22,02:20,0.781,1.129,0.787,1.471,1.055,0.441,0.787,0.745,�k��,6.3,��
2019/02/22,02:30,0.778,1.131,0.789,1.471,1.055,0.442,0.786,0.744,�k��,5.7,��
2019/02/22,02:40,0.779,1.131,0.787,1.472,1.056,0.442,0.787,0.745,�k��,5.4,��
2019/02/22,02:50,0.779,1.132,0.788,1.470,1.055,0.442,0.787,0.744,�k��,6.7,��
2019/02/22,03:00,0.776,1.132,0.788,1.468,1.055,0.443,0.787,0.746,���k��,7.6,��
2019/02/22,03:10,0.779,1.132,0.789,1.470,1.054,0.443,0.789,0.744,���k��,8.2,��
2019/02/22,03:20,0.779,1.132,0.788,1.469,1.056,0.442,0.788,0.746,�k��,9.0,��
2019/02/22,03:30,0.780,1.132,0.788,1.472,1.056,0.442,0.787,0.746,�k��,7.3,��
2019/02/22,03:40,0.777,1.131,0.790,1.472,1.052,0.443,0.787,0.746,�k��,6.3,��
2019/02/22,03:50,0.780,1.132,0.789,1.471,1.054,0.442,0.789,0.744,�k��,6.6,��
2019/02/22,04:00,0.779,1.130,0.787,1.469,1.056,0.441,0.789,0.747,�k��,6.3,��
2019/02/22,04:10,0.779,1.133,0.787,1.473,1.057,0.443,0.789,0.745,�k��,5.6,��
2019/02/22,04:20,0.778,1.131,0.788,1.472,1.056,0.441,0.788,0.744,�k��,6.0,��
2019/02/22,04:30,0.779,1.131,0.790,1.473,1.055,0.442,0.788,0.746,�k��,6.5,��
2019/02/22,04:40,0.778,1.131,0.789,1.472,1.056,0.441,0.789,0.746,���k��,5.5,��
2019/02/22,04:50,0.778,1.131,0.790,1.472,1.055,0.441,0.788,0.745,�k��,5.0,��
2019/02/22,05:00,0.777,1.130,0.787,1.472,1.053,0.443,0.787,0.746,�k��,5.6,��
2019/02/22,05:10,0.778,1.129,0.788,1.470,1.054,0.442,0.789,0.746,���k��,5.8,��
2019/02/22,05:20,0.777,1.130,0.788,1.471,1.054,0.442,0.786,0.745,���k��,5.5,��
2019/02/22,05:30,0.778,1.130,0.788,1.471,1.053,0.441,0.786,0.747,���k��,6.1,��
2019/02/22,05:40,0.780,1.129,0.788,1.470,1.054,0.441,0.787,0.745,���k��,4.8,��
2019/02/22,05:50,0.778,1.127,0.787,1.472,1.053,0.441,0.788,0.745,���k��,6.4,��
2019/02/22,06:00,0.779,1.131,0.789,1.472,1.053,0.442,0.787,0.746,���k��,6.4,��
2019/02/22,06:10,0.780,1.130,0.788,1.473,1.054,0.441,0.788,0.745,���k��,6.9,��
2019/02/22,06:20,0.780,1.130,0.789,1.473,1.053,0.441,0.789,0.745,���k��,7.3,��
2019/02/22,06:30,0.776,1.131,0.787,1.471,1.052,0.441,0.786,0.746,���k��,6.6,��
2019/02/22,06:40,0.778,1.128,0.789,1.471,1.055,0.443,0.789,0.745,���k��,4.7,��
2019/02/22,06:50,0.778,1.130,0.787,1.469,1.055,0.440,0.785,0.746,���k��,4.3,��
2019/02/22,07:00,0.779,1.129,0.789,1.471,1.054,0.439,0.788,0.744,���k��,3.1,��
2019/02/22,07:10,0.779,1.129,0.788,1.470,1.053,0.441,0.787,0.746,���k��,3.1,��
2019/02/22,07:20,0.780,1.130,0.787,1.471,1.057,0.439,0.787,0.746,�k��,2.9,��
2019/02/22,07:30,0.777,1.129,0.787,1.471,1.054,0.440,0.786,0.745,�k��,2.3,��
2019/02/22,07:40,0.778,1.131,0.788,1.474,1.054,0.440,0.788,0.745,�k��,1.9,��
2019/02/22,07:50,0.778,1.131,0.788,1.472,1.055,0.442,0.788,0.746,�k��,0.6,��
2019/02/22,08:00,0.779,1.127,0.786,1.470,1.054,0.440,0.790,0.747,�k��,1.5,��
2019/02/22,08:10,0.779,1.130,0.790,1.470,1.055,0.440,0.789,0.745,�k�k��,1.2,��
2019/02/22,08:20,0.782,1.126,0.788,1.470,1.055,0.439,0.789,0.747,-,CALM,��
2019/02/22,08:30,0.782,1.127,0.786,1.471,1.057,0.440,0.788,0.745,-,CALM,��
2019/02/22,08:40,0.781,1.128,0.788,1.473,1.056,0.442,0.789,0.748,�k��,0.6,��
2019/02/22,08:50,0.782,1.129,0.787,1.472,1.056,0.441,0.790,0.746,�k��,0.8,��
2019/02/22,09:00,0.783,1.133,0.783,1.472,1.056,0.440,0.790,0.744,�k��,0.8,��
2019/02/22,09:10,0.784,1.132,0.784,1.475,1.059,0.442,0.788,0.747,��,1.4,��
2019/02/22,09:20,0.785,1.129,0.781,1.470,1.058,0.442,0.787,0.747,��쓌,1.5,��
2019/02/22,09:30,0.784,1.128,0.777,1.468,1.057,0.441,0.790,0.746,���쓌,1.1,��
2019/02/22,09:40,0.781,1.125,0.774,1.466,1.055,0.443,0.789,0.746,�k��,2.6,��
2019/02/22,09:50,0.779,1.129,0.774,1.470,1.058,0.443,0.787,0.746,���k��,2.9,��
2019/02/22,10:00,0.781,1.127,0.759,1.468,1.056,0.441,0.790,0.748,���k��,2.3,��
2019/02/22,10:10,0.781,1.128,0.770,1.468,1.058,0.443,0.787,0.747,���쓌,1.2,��
2019/02/22,10:20,0.782,1.129,0.767,1.468,1.058,0.443,0.786,0.746,��,2.3,��
2019/02/22,10:30,0.783,1.127,0.767,1.470,1.059,0.443,0.787,0.747,���쓌,1.9,��
2019/02/22,10:40,0.785,1.128,0.765,1.471,1.057,0.443,0.787,0.747,���쓌,3.9,��
2019/02/22,10:50,0.785,1.127,0.772,1.469,1.058,0.444,0.788,0.750,��,3.8,��
2019/02/22,11:00,0.789,1.124,0.773,1.470,1.059,0.444,0.789,0.747,��,3.3,��
2019/02/22,11:10,0.789,1.125,0.774,1.469,1.059,0.444,0.788,0.747,���쓌,3.8,��
2019/02/22,11:20,0.789,1.127,0.770,1.470,1.060,0.444,0.787,0.747,��,3.5,��
2019/02/22,11:30,0.786,1.137,0.778,1.474,1.058,0.443,0.786,0.747,��,4.3,��
2019/02/22,11:40,0.786,1.137,0.782,1.470,1.060,0.444,0.790,0.746,��,2.9,��
2019/02/22,11:50,0.785,1.131,0.781,1.474,1.059,0.443,0.788,0.747,���쓌,3.5,��
2019/02/22,12:00,0.787,1.133,0.783,1.473,1.062,0.443,0.790,0.746,���쓌,3.5,��
2019/02/22,12:10,0.788,1.134,0.786,1.476,1.060,0.444,0.788,0.748,���쓌,4.3,��
2019/02/22,12:20,0.786,1.134,0.782,1.477,1.060,0.445,0.788,0.747,���쓌,3.8,��
2019/02/22,12:30,0.787,1.132,0.783,1.475,1.061,0.444,0.787,0.747,���쓌,4.2,��
2019/02/22,12:40,0.787,1.134,0.785,1.478,1.061,0.444,0.791,0.748,���쓌,4.4,��
2019/02/22,12:50,0.789,1.130,0.784,1.475,1.060,0.447,0.789,0.750,���쓌,4.0,��
2019/02/22,13:00,0.789,1.133,0.786,1.477,1.059,0.444,0.787,0.746,���쓌,3.7,��
2019/02/22,13:10,0.790,1.133,0.788,1.477,1.062,0.444,0.788,0.748,��,3.6,��
2019/02/22,13:20,0.789,1.137,0.785,1.476,1.062,0.445,0.791,0.748,���쓌,3.7,��
2019/02/22,13:30,0.792,1.132,0.784,1.475,1.062,0.445,0.789,0.745,���쓌,3.7,��
2019/02/22,13:40,0.792,1.135,0.784,1.476,1.059,0.447,0.789,0.747,���쓌,3.4,��
2019/02/22,13:50,0.793,1.133,0.786,1.474,1.064,0.446,0.789,0.746,���쓌,4.2,��
2019/02/22,14:00,0.791,1.137,0.784,1.474,1.063,0.444,0.789,0.746,�쓌,4.0,��
2019/02/22,14:10,0.792,1.133,0.783,1.475,1.063,0.445,0.790,0.745,���쓌,4.2,��
2019/02/22,14:20,0.792,1.137,0.784,1.476,1.063,0.444,0.789,0.745,���쓌,4.2,��
2019/02/22,14:30,0.792,1.136,0.785,1.479,1.062,0.444,0.789,0.743,��,4.5,��
2019/02/22,14:40,0.792,1.136,0.784,1.477,1.062,0.445,0.789,0.746,��,3.5,��
2019/02/22,14:50,0.792,1.137,0.783,1.477,1.065,0.444,0.788,0.745,��,4.0,��
2019/02/22,15:00,0.791,1.138,0.785,1.477,1.062,0.445,0.790,0.744,��,3.5,��
2019/02/22,15:10,0.795,1.138,0.783,1.476,1.062,0.446,0.789,0.744,��,3.3,��
2019/02/22,15:20,0.794,1.137,0.787,1.477,1.065,0.445,0.788,0.748,��,3.2,��
2019/02/22,15:30,0.792,1.140,0.782,1.478,1.063,0.446,0.790,0.746,��,3.2,��
2019/02/22,15:40,0.792,1.141,0.782,1.475,1.064,0.445,0.791,0.746,��,2.6,��
2019/02/22,15:50,0.793,1.141,0.787,1.477,1.063,0.446,0.790,0.745,���k��,2.8,��
2019/02/22,16:00,0.793,1.144,0.794,1.477,1.064,0.445,0.791,0.750,��,2.5,��
2019/02/22,16:10,0.792,1.144,0.793,1.474,1.062,0.445,0.792,0.748,��,2.0,��
2019/02/22,16:20,0.793,1.140,0.793,1.475,1.063,0.445,0.790,0.748,��,2.0,��
2019/02/22,16:30,0.794,1.141,0.794,1.478,1.063,0.445,0.790,0.746,��,2.0,��
2019/02/22,16:40,0.792,1.143,0.796,1.480,1.063,0.445,0.792,0.749,���쓌,1.5,��
2019/02/22,16:50,0.795,1.142,0.793,1.476,1.065,0.447,0.790,0.748,���k��,1.2,��
2019/02/22,17:00,0.792,1.143,0.796,1.476,1.063,0.444,0.791,0.746,���k��,1.4,��
2019/02/22,17:10,0.793,1.140,0.794,1.477,1.065,0.446,0.791,0.747,�k��,1.1,��
2019/02/22,17:20,0.793,1.142,0.793,1.476,1.063,0.445,0.792,0.747,��,1.1,��
2019/02/22,17:30,0.792,1.143,0.795,1.478,1.065,0.444,0.793,0.748,���쓌,0.9,��
2019/02/22,17:40,0.793,1.141,0.793,1.472,1.065,0.445,0.791,0.748,�k�k��,0.8,��
2019/02/22,17:50,0.790,1.141,0.793,1.474,1.065,0.444,0.792,0.747,�k,1.4,��
2019/02/22,18:00,0.793,1.137,0.793,1.478,1.062,0.445,0.788,0.748,�k�k��,1.5,��
2019/02/22,18:10,0.791,1.139,0.792,1.475,1.061,0.446,0.789,0.748,�k,1.9,��
2019/02/22,18:20,0.792,1.143,0.793,1.476,1.064,0.445,0.790,0.747,�k,2.2,��
2019/02/22,18:30,0.792,1.143,0.794,1.476,1.064,0.446,0.790,0.748,�k,2.0,��
2019/02/22,18:40,0.792,1.142,0.793,1.477,1.065,0.444,0.789,0.746,�k,2.0,��
2019/02/22,18:50,0.791,1.146,0.794,1.477,1.063,0.444,0.790,0.747,�k,2.5,��
2019/02/22,19:00,0.793,1.141,0.793,1.475,1.065,0.444,0.793,0.746,�k,2.6,��
2019/02/22,19:10,0.791,1.144,0.793,1.476,1.066,0.445,0.790,0.747,�k,3.0,��
2019/02/22,19:20,0.794,1.142,0.793,1.474,1.063,0.445,0.790,0.746,�k,3.2,��
2019/02/22,19:30,0.791,1.143,0.793,1.476,1.064,0.444,0.791,0.748,�k,3.6,��
2019/02/22,19:40,0.791,1.141,0.792,1.474,1.064,0.444,0.789,0.748,�k�k��,3.6,��
2019/02/22,19:50,0.792,1.144,0.793,1.476,1.066,0.443,0.789,0.746,�k�k��,4.1,��
2019/02/22,20:00,0.793,1.144,0.794,1.477,1.064,0.444,0.788,0.747,�k�k��,3.7,��
2019/02/22,20:10,0.792,1.143,0.793,1.475,1.063,0.445,0.790,0.746,�k�k��,3.6,��
2019/02/22,20:20,0.791,1.145,0.792,1.476,1.063,0.444,0.789,0.746,�k�k��,3.7,��
2019/02/22,20:30,0.791,1.142,0.793,1.476,1.063,0.444,0.791,0.747,�k�k��,3.7,��
2019/02/22,20:40,0.789,1.145,0.793,1.476,1.064,0.444,0.789,0.746,�k�k��,3.9,��
2019/02/22,20:50,0.791,1.141,0.793,1.476,1.067,0.442,0.791,0.747,�k�k��,4.4,��
2019/02/22,21:00,0.792,1.140,0.792,1.474,1.066,0.444,0.789,0.747,�k�k��,4.1,��
2019/02/22,21:10,0.789,1.144,0.793,1.474,1.064,0.444,0.790,0.747,�k�k��,4.1,��
2019/02/22,21:20,0.791,1.145,0.793,1.472,1.063,0.445,0.789,0.747,�k�k��,4.0,��
2019/02/22,21:30,0.793,1.144,0.795,1.478,1.064,0.443,0.787,0.746,�k�k��,4.6,��
2019/02/22,21:40,0.791,1.144,0.792,1.475,1.061,0.444,0.788,0.746,�k�k��,4.6,��
2019/02/22,21:50,0.791,1.143,0.794,1.476,1.064,0.443,0.789,0.748,�k�k��,4.2,��
2019/02/22,22:00,0.790,1.145,0.791,1.475,1.064,0.443,0.791,0.747,�k�k��,4.4,��
2019/02/22,22:10,0.791,1.140,0.794,1.475,1.063,0.444,0.789,0.747,�k�k��,3.8,��
2019/02/22,22:20,0.788,1.142,0.793,1.476,1.064,0.443,0.789,0.747,�k�k��,3.8,��
2019/02/22,22:30,0.791,1.143,0.791,1.473,1.063,0.444,0.789,0.746,�k�k��,4.2,��
2019/02/22,22:40,0.790,1.142,0.794,1.477,1.063,0.444,0.790,0.748,�k�k��,4.0,��
2019/02/22,22:50,0.791,1.141,0.791,1.474,1.064,0.445,0.789,0.747,�k�k��,4.0,��
2019/02/22,23:00,0.791,1.142,0.792,1.473,1.062,0.442,0.790,0.748,�k�k��,4.2,��
2019/02/22,23:10,0.789,1.142,0.792,1.474,1.061,0.443,0.790,0.747,�k�k��,4.5,��
2019/02/22,23:20,0.791,1.140,0.793,1.476,1.063,0.444,0.790,0.746,�k�k��,4.7,��
2019/02/22,23:30,0.790,1.145,0.793,1.475,1.063,0.444,0.789,0.748,�k�k��,5.3,��
2019/02/22,23:40,0.791,1.143,0.794,1.476,1.062,0.445,0.791,0.747,�k�k��,5.7,��
2019/02/22,23:50,0.793,1.142,0.793,1.475,1.062,0.444,0.789,0.747,�k�k��,6.1,��
